Terminal Aerodrome Forecast
Issued by NWS

Home | Current Version | Previous Version | Text Only | Print | Product List | Glossary On
Versions: 1 2 3 4 5 6 7 8 9 10 11 12 13 14
000
FTUS46 KMTR 262300
TAFSJC
TAF
KSJC 262335Z 2700/2724 30012KT P6SM FEW090 SCT160 BKN250
     FM270500 31008KT P6SM FEW020 SCT200
      TEMPO 2712/2716 BKN020
     FM271700 30011KT P6SM FEW025 BKN100
     FM271900 31015G20KT P6SM BKN050 OVC100=

USA.gov is the U.S. government's official web portal to all federal, state and local government web resources and services.